Temperature
23 25 27 27 27 27 25 22 22 23 23 23 23 24 25 25 25 25 24 24 24 24 24 23 23 22 22 21 21 20 20 19 19 19 18 18 18 18 18 18 18 17 17 17
24 26 26 26 27 27 27 26 24 24 24 23 25 25 25 25 25 24 25 25 25 24 24 23 23 22 22 21 21 20 20 20 19 19 18 18 18 18 18 18 17 17 17 17
22 24 25 24 25 26 26 26 25 24 24 24 23 23 24 24 25 25 25 25 24 24 24 24 23 23 22 22 21 20 20 19 19 19 18 18 18 18 18 17 17 17 17 17
20 23 23 22 24 25 25 25 24 24 23 23 23 24 25 25 25 25 25 25 25 24 24 23 23 23 22 21 21 20 20 19 19 18 18 18 18 18 17 17 17 17 17 16
18 20 21 23 25 26 25 23 23 23 23 24 24 23 23 24 25 26 25 25 25 24 24 23 23 22 22 21 20 20 20 19 19 19 18 18 18 17 17 17 17 17 16 16
18 20 21 22 24 26 24 22 22 22 22 23 23 20 20 23 24 25 25 24 24 24 23 23 22 22 21 21 20 20 20 19 19 18 18 18 18 17 17 17 17 16 16 16
18 19 19 21 24 24 22 21 22 22 22 22 21 21 22 22 24 24 24 24 24 23 23 22 22 21 21 20 20 20 19 19 18 18 18 18 17 17 17 16 16 16 16 15
16 18 19 21 23 21 20 22 22 22 23 22 22 21 21 22 23 23 23 22 22 22 22 21 21 20 20 20 20 19 19 18 18 18 17 17 17 17 16 16 15 15 15 15
16 17 19 21 21 22 22 22 22 22 22 22 21 21 21 21 21 21 21 21 21 21 20 20 19 19 19 19 19 18 18 18 18 17 17 17 16 16 16 15 15 15 14 14
16 17 18 20 21 21 22 22 22 22 21 21 21 20 20 20 20 20 20 20 20 19 19 19 19 18 18 18 18 18 17 17 17 17 16 16 16 15 15 15 15 14 14 14
15 16 18 19 19 20 20 21 21 21 21 21 20 20 20 19 19 19 19 19 19 19 18 18 18 18 17 17 17 17 16 16 16 16 16 15 15 15 14 14 14 14 14 14
14 16 15 17 18 19 20 20 20 20 20 19 19 19 19 19 18 18 18 18 18 18 18 17 17 17 16 16 16 16 15 15 15 15 15 15 14 14 14 14 13 13 13 13
16 17 17 18 18 19 19 19 19 19 19 19 18 18 18 18 18 17 17 17 17 17 17 16 16 16 15 15 15 15 15 15 14 14 14 14 14 13 13 13 13 13 12 12
17 17 17 17 17 18 18 19 18 18 18 18 17 17 17 17 17 17 16 16 16 16 16 16 15 15 15 15 14 14 14 14 14 14 13 13 13 13 13 12 12 12 12 11
17 17 17 16 17 17 17 18 17 17 17 17 17 16 16 16 16 16 16 15 15 15 15 15 14 14 14 14 14 14 13 13 13 13 12 12 12 12 12 12 11 11 11 11
16 16 16 16 16 16 16 17 16 16 16 16 16 16 16 16 15 15 15 15 14 14 14 14 14 13 13 13 13 13 13 12 12 12 12 11 11 11 11 11 11 10 10 10
16 16 16 16 16 16 16 16 16 16 15 15 15 15 15 15 14 14 14 14 14 14 14 13 13 12 12 13 12 12 12 12 11 11 11 11 11 10 10 10 10 10 10 9
15 15 15 15 15 15 15 15 15 15 15 15 15 14 14 14 14 14 13 13 13 13 13 12 12 12 12 12 12 12 11 11 11 11 11 11 10 10 10 10 10 9 9 9
15 15 15 15 15 15 15 15 15 14 14 14 14 14 14 14 14 13 13 13 13 12 12 12 12 12 12 11 11 11 11 11 11 10 10 10 10 10 10 10 9 9 9 9
14 14 14 14 14 14 14 14 14 14 14 14 14 14 13 13 13 13 13 12 12 12 12 11 11 11 11 11 11 11 10 10 10 10 10 10 10 10 10 9 9 9 9 9
13 13 13 13 13 13 13 13 13 13 13 13 13 13 13 13 12 12 12 12 11 11 11 11 11 11 11 10 10 10 10 10 10 10 10 10 9 9 9 9 9 9 9 9
12 12 12 12 12 13 13 13 13 13 13 13 13 13 12 12 12 12 12 11 11 11 11 11 11 10 10 10 10 10 10 10 10 10 10 10 9 9 9 9 9 9 9 8
11 12 12 12 12 12 12 12 12 12 12 12 12 12 12 12 12 11 11 11 11 10 10 10 10 10 10 10 10 10 10 10 10 10 10 9 9 9 9 9 9 9 8 8
11 11 11 11 11 12 11 11 11 11 11 11 11 11 11 11 11 11 11 10 10 10 10 10 10 10 10 10 10 10 10 10 9 9 9 9 9 9 9 9 9 8 8 8
10 11 11 11 11 11 11 11 11 11 11 11 11 11 11 11 11 11 10 10 10 10 10 10 10 9 9 9 9 9 9 9 9 9 9 9 9 9 8 8 8 8 8 8
10 10 10 10 10 10 10 10 10 10 10 10 10 10 10 10 10 10 10 10 10 10 10 9 9 9 9 9 9 9 9 9 9 9 9 9 8 8 8 8 8 8 8 8
10 10 10 10 10 10 10 10 10 10 10 10 10 10 10 10 10 10 10 10 9 9 9 9 9 9 9 9 9 8 8 8 8 8 8 8 8 8 7 7 7 7 7 7
Wind_Speed
7 7 4 2 4 3 5 9 10 10 11 11 11 12 12 12 12 12 11 11 12 11 9 8 8 8 9 9 9 9 9 8 7 6 5 5 4 4 3 3 3 3 3 3
1 1 2 1 4 5 5 5 7 7 8 10 8 8 10 13 14 13 12 12 13 12 11 10 10 9 9 8 9 8 9 8 7 6 5 5 4 4 3 2 2 2 2 2
1 2 4 3 5 4 5 5 6 9 10 6 7 10 14 15 15 14 13 11 11 12 11 11 10 9 10 9 8 8 8 7 7 6 6 6 5 4 3 3 2 2 2 2
3 3 5 9 5 3 3 5 4 5 6 9 10 8 7 10 14 13 12 11 9 9 8 7 7 7 8 8 8 8 7 7 6 6 6 5 5 4 3 2 3 2 2 2
4 4 5 7 5 2 1 4 6 1 4 7 9 10 5 2 8 11 11 10 9 8 7 7 8 8 9 8 7 7 7 6 6 7 6 6 5 4 3 3 2 2 2 2
4 4 6 7 6 3 3 3 7 1 6 8 8 6 4 2 5 7 8 8 7 8 7 7 7 8 9 8 7 7 7 6 6 6 7 6 6 5 3 3 3 3 2 2
4 3 6 7 7 4 2 5 5 1 4 7 5 6 6 6 6 7 8 8 8 9 8 6 7 8 8 7 7 6 6 5 5 5 6 6 5 4 3 3 3 3 3 2
5 4 7 7 4 1 5 3 1 3 5 8 9 9 8 8 8 8 8 8 8 9 7 5 6 7 7 5 4 4 5 5 5 4 4 5 5 4 3 4 4 3 2 2
7 7 5 3 1 1 4 4 3 5 6 10 11 8 8 7 7 7 7 7 7 8 7 5 4 6 6 3 4 5 6 5 4 4 3 4 4 4 3 3 3 3 3 3
1 1 2 3 4 5 4 4 5 6 7 9 10 8 8 7 6 6 6 7 6 7 7 5 4 4 4 3 4 6 5 4 4 4 4 3 3 3 3 2 3 3 3 3
1 2 5 7 5 4 5 6 7 7 6 7 9 8 7 6 6 6 6 5 6 6 6 4 4 5 4 4 4 5 4 4 3 4 5 4 4 3 2 1 1 2 3 3
1 4 1 2 4 5 6 6 6 8 7 7 7 7 7 7 5 6 6 6 6 6 6 5 5 5 5 4 4 5 4 3 2 3 4 4 4 3 7 4 4 3 1 1
3 2 0 2 4 5 5 6 6 7 7 7 6 6 7 6 6 6 6 6 6 6 6 6 5 4 4 4 4 5 3 3 3 2 3 3 3 3 2 3 6 6 4 3
1 2 3 4 4 4 5 7 7 7 7 7 6 7 8 7 6 6 5 4 5 6 5 5 5 3 2 2 3 4 3 3 2 2 2 2 2 2 3 3 1 1 3 3
1 1 1 1 3 4 4 6 7 6 5 5 5 6 7 7 6 5 4 5 5 5 4 4 3 2 1 2 3 3 2 2 2 2 2 2 2 2 2 2 2 2 1 2
0 2 2 2 2 2 3 4 4 3 4 4 5 6 6 6 5 5 5 5 5 4 3 2 1 1 1 2 3 2 2 3 4 3 2 2 2 2 2 2 2 2 2 2
2 0 1 1 1 1 1 2 3 3 3 4 5 6 6 6 6 5 4 3 4 3 3 3 1 0 1 2 2 2 1 2 4 3 3 2 2 2 2 2 2 2 2 2
2 2 2 2 2 1 0 1 3 4 4 5 6 7 6 6 5 4 4 4 3 2 1 1 1 1 1 1 1 1 2 2 2 3 3 2 2 2 2 2 2 2 1 1
2 2 2 2 1 3 2 2 3 4 4 6 7 6 6 7 6 5 5 5 4 2 0 1 2 2 1 1 2 1 2 2 2 2 2 2 2 2 2 2 2 2 2 2
1 1 2 2 3 2 2 2 4 5 5 6 7 6 5 5 6 6 5 3 2 3 2 2 3 2 1 1 2 1 2 2 2 2 1 1 2 2 2 2 2 2 2 3
1 1 1 2 1 1 2 2 3 4 4 5 6 7 6 5 5 5 4 3 1 2 2 3 2 1 1 1 2 2 2 2 2 2 2 2 2 1 1 1 2 2 2 2
2 1 1 2 2 1 1 2 2 4 4 5 5 6 7 6 5 4 3 2 2 3 3 2 1 2 2 2 2 1 1 2 2 2 2 2 2 2 2 2 2 2 2 3
1 1 1 2 2 2 2 2 3 3 4 5 6 7 6 5 5 5 3 1 2 4 3 2 2 3 4 3 1 1 1 1 2 2 2 2 2 2 2 2 2 2 2 2
1 2 2 2 3 4 4 3 2 2 3 4 4 6 6 5 3 2 3 5 5 5 4 3 4 4 4 2 1 1 1 1 1 1 1 1 1 1 1 1 1 1 1 1
2 3 3 4 3 3 3 4 4 5 5 5 5 5 4 4 4 3 3 4 5 6 3 3 3 3 3 2 2 2 2 2 3 2 2 2 1 1 1 1 1 0 1 1
3 3 3 3 2 2 3 4 4 4 5 5 4 4 4 4 5 4 3 4 4 4 3 1 2 3 3 3 3 4 3 3 4 3 3 2 2 2 2 2 1 1 1 1
4 3 3 3 3 3 4 4 5 5 5 5 5 4 5 4 4 4 4 4 3 3 2 2 2 2 3 3 4 4 4 3 4 4 4 3 3 2 2 2 2 2 2 2
Wind_Direction
190 191 170 201 262 243 196 191 189 213 208 222 206 186 177 170 166 162 164 166 170 172 171 170 173 175 175 175 175 173 173 180 187 190 189 186 187 191 195 200 210 211 207 208
113 106 83 337 299 297 266 223 205 201 229 228 204 172 166 167 163 164 168 174 178 176 173 175 177 177 176 178 176 170 174 182 182 179 178 180 182 179 176 184 183 168 173 183
195 13 47 288 250 256 273 260 200 211 228 204 168 170 173 171 167 167 167 168 176 178 180 182 178 173 175 174 165 163 170 177 178 175 177 182 175 162 167 181 163 150 159 151
127 90 222 241 248 235 256 288 266 218 208 177 172 170 165 165 161 161 162 167 176 177 175 169 162 159 159 154 154 162 169 173 177 173 174 173 164 167 178 170 157 157 149 139
119 167 269 296 304 324 251 306 317 222 155 151 131 96 65 146 154 159 163 163 168 170 164 156 153 150 143 145 151 154 164 172 176 171 168 165 164 169 169 161 160 157 154 152
120 154 217 251 284 310 94 327 321 107 145 145 124 126 195 191 141 138 139 143 144 140 129 134 143 142 143 153 158 169 178 178 174 170 169 170 170 170 167 165 167 157 154 158
150 197 253 262 298 22 107 231 296 99 144 139 136 159 154 129 118 118 116 115 118 120 125 135 137 136 143 153 173 182 172 162 159 163 167 166 164 165 160 160 155 155 156 157
158 190 250 288 352 111 203 222 15 85 107 103 100 103 111 114 110 114 114 111 111 116 116 115 122 131 140 161 173 149 142 147 152 155 163 162 152 157 159 159 163 171 175 192
186 207 244 308 123 166 152 119 87 91 96 111 109 113 113 110 107 110 115 112 108 110 104 93 101 119 130 155 146 135 138 148 151 147 148 148 154 160 162 168 181 197 200 212
156 300 323 17 54 47 73 104 97 100 105 107 107 112 105 103 106 104 101 103 103 106 106 98 87 93 105 106 126 132 136 142 144 142 133 115 117 137 158 179 193 204 215 221
47 314 356 10 21 46 58 80 88 84 89 102 107 110 113 113 110 110 107 104 108 112 110 104 95 84 72 75 96 109 117 122 127 129 129 115 93 65 96 120 199 206 220 209
237 278 191 309 342 42 62 67 96 97 82 84 99 118 117 114 107 106 107 106 105 101 98 86 77 70 60 64 86 105 110 114 123 125 125 126 122 85 45 50 39 51 62 161
206 259 144 326 22 42 67 69 79 99 109 106 102 107 101 98 95 97 99 107 109 106 101 94 82 61 51 60 83 95 107 117 117 121 134 151 155 148 133 49 51 48 47 72
6 48 24 3 7 16 61 82 82 83 89 99 103 99 99 93 90 92 98 112 116 112 108 104 97 82 44 67 85 95 102 108 116 131 147 157 165 163 162 160 140 33 31 50
5 89 189 274 34 37 58 86 100 101 98 96 110 115 116 117 117 116 113 111 106 101 100 101 102 97 74 88 92 99 115 135 133 132 139 137 133 136 146 148 141 129 104 47
69 45 69 68 66 65 69 86 106 130 132 126 131 133 128 125 122 120 116 117 120 125 126 118 121 146 98 102 103 111 124 126 121 121 122 119 129 141 146 144 144 152 164 165
130 115 20 52 10 39 115 135 149 162 152 146 150 137 124 119 116 117 120 132 136 144 146 144 156 134 101 108 124 142 127 130 127 124 127 137 148 157 158 157 165 175 190 185
144 168 173 157 149 139 146 136 139 145 159 157 142 130 131 136 144 152 151 136 122 107 97 123 119 85 73 88 99 124 138 145 144 148 150 151 156 159 160 168 180 187 204 197
88 90 67 55 93 134 128 122 127 134 139 144 146 156 164 163 162 156 148 138 133 131 223 110 103 91 81 62 77 107 132 138 136 142 149 158 160 162 170 183 192 201 202 194
36 72 69 46 43 81 115 134 135 146 151 156 155 157 163 165 156 144 137 142 168 181 175 138 114 95 72 44 67 100 122 130 136 140 138 152 164 176 183 184 189 202 204 202
13 85 75 68 70 94 130 143 147 159 158 160 163 161 162 158 147 138 133 138 203 154 137 128 119 119 94 82 80 102 113 116 123 136 140 141 143 157 177 192 200 206 213 218
359 76 99 96 102 80 74 112 126 136 139 142 147 145 140 134 128 115 117 151 167 135 118 111 119 113 105 93 78 94 119 134 136 140 145 152 156 164 181 196 213 223 224 227
10 87 123 133 130 111 76 70 90 119 129 135 135 137 136 135 139 139 140 155 131 116 107 105 109 96 87 77 74 95 136 146 153 156 162 172 180 186 198 207 218 232 237 242
43 95 116 110 102 96 85 67 68 96 110 115 124 130 129 121 112 123 136 140 135 119 107 105 90 73 63 48 27 55 99 117 134 149 152 158 159 164 191 192 202 248 258 266
49 82 94 90 90 96 99 97 84 82 86 86 89 99 110 121 132 135 123 126 127 116 103 100 91 73 54 44 52 65 71 78 85 90 92 88 86 80 63 47 36 12 338 318
57 76 91 97 103 105 103 101 97 91 91 88 79 83 95 104 110 109 109 119 121 111 98 76 73 73 64 66 72 74 72 67 66 61 63 68 60 58 54 45 29 21 0 337
52 63 73 63 55 66 82 91 97 96 98 100 90 78 87 95 96 98 101 105 103 95 85 78 80 80 77 77 75 75 75 72 68 64 57 51 47 42 30 30 26 13 9 4
Height
1494 1492 1490 1493 1494 1495 1504 1511 1519 1515 1511 1503 1497 1495 1496 1498 1501 1505 1508 1510 1513 1516 1518 1521 1523 1525 1527 1528 1530 1531 1532 1532 1533 1534 1534 1534 1534 1534 1534 1534 1534 1535 1535 1535
1493 1487 1488 1492 1491 1492 1494 1496 1500 1501 1502 1490 1490 1491 1494 1496 1498 1502 1504 1507 1510 1513 1516 1518 1521 1523 1525 1526 1528 1529 1530 1530 1531 1532 1532 1533 1533 1533 1533 1533 1533 1533 1533 1533
1505 1493 1493 1503 1492 1491 1492 1489 1492 1498 1492 1486 1489 1489 1490 1492 1495 1498 1502 1506 1508 1510 1513 1515 1518 1520 1522 1524 1526 1527 1528 1529 1530 1530 1530 1531 1531 1531 1531 1531 1531 1531 1531 1531
1508 1502 1515 1502 1484 1483 1486 1486 1483 1482 1481 1481 1483 1485 1487 1490 1492 1496 1500 1503 1505 1508 1511 1514 1516 1518 1520 1522 1523 1524 1525 1526 1527 1528 1528 1529 1529 1529 1529 1529 1529 1529 1529 1529
1514 1515 1508 1493 1482 1482 1486 1489 1482 1480 1479 1480 1482 1485 1490 1491 1492 1493 1496 1499 1503 1506 1509 1511 1513 1515 1518 1520 1521 1522 1523 1524 1524 1525 1525 1526 1526 1526 1527 1527 1527 1527 1527 1527
1511 1513 1516 1498 1480 1478 1482 1493 1482 1479 1478 1479 1480 1491 1493 1491 1492 1494 1496 1498 1501 1504 1506 1509 1511 1513 1515 1516 1518 1519 1520 1521 1521 1522 1522 1523 1524 1524 1524 1525 1525 1525 1525 1524
1510 1511 1505 1487 1478 1477 1497 1497 1482 1479 1478 1478 1479 1484 1487 1489 1491 1493 1495 1497 1499 1502 1504 1507 1509 1511 1512 1513 1514 1516 1517 1518 1519 1519 1520 1520 1521 1522 1522 1522 1522 1522 1522 1522
1510 1513 1509 1483 1479 1485 1488 1483 1481 1479 1478 1479 1480 1483 1486 1488 1490 1492 1494 1496 1498 1500 1502 1505 1506 1508 1509 1511 1512 1513 1514 1515 1516 1516 1517 1517 1518 1519 1519 1519 1519 1519 1519 1519
1499 1500 1489 1483 1481 1482 1482 1482 1482 1481 1480 1480 1481 1485 1486 1488 1490 1492 1494 1496 1498 1500 1501 1504 1505 1506 1507 1508 1510 1510 1511 1512 1513 1514 1514 1515 1515 1516 1516 1516 1516 1516 1516 1515
1492 1490 1486 1484 1482 1482 1482 1483 1483 1482 1483 1482 1483 1485 1487 1488 1490 1492 1495 1496 1497 1499 1500 1502 1504 1505 1506 1507 1507 1508 1509 1510 1510 1511 1511 1512 1512 1512 1513 1513 1513 1513 1512 1512
1492 1489 1486 1484 1484 1484 1484 1483 1483 1484 1484 1484 1485 1487 1488 1489 1490 1492 1494 1496 1497 1497 1499 1501 1502 1503 1504 1505 1506 1506 1507 1507 1508 1508 1508 1509 1509 1509 1509 1509 1509 1509 1509 1509
1495 1491 1489 1488 1486 1485 1484 1484 1484 1485 1485 1486 1487 1489 1489 1490 1492 1493 1494 1496 1497 1498 1499 1500 1501 1502 1502 1503 1503 1504 1505 1505 1505 1506 1506 1506 1506 1506 1506 1506 1505 1505 1506 1506
1491 1490 1489 1488 1486 1486 1484 1485 1486 1486 1485 1486 1489 1490 1490 1492 1493 1494 1496 1496 1496 1497 1497 1498 1500 1500 1501 1502 1502 1502 1502 1503 1503 1503 1503 1503 1503 1503 1503 1503 1502 1502 1502 1502
1490 1489 1489 1488 1487 1486 1485 1485 1487 1487 1487 1487 1489 1490 1491 1493 1494 1495 1495 1496 1496 1496 1496 1497 1498 1499 1499 1500 1500 1500 1500 1500 1500 1500 1500 1501 1501 1501 1501 1500 1499 1499 1499 1499
1489 1489 1489 1489 1487 1487 1486 1486 1486 1487 1488 1489 1490 1491 1491 1493 1494 1495 1495 1496 1496 1496 1496 1496 1497 1497 1498 1498 1498 1498 1498 1498 1498 1498 1498 1498 1498 1498 1498 1498 1497 1497 1497 1496
1487 1488 1488 1488 1487 1487 1486 1486 1487 1487 1488 1489 1489 1490 1491 1492 1492 1493 1494 1495 1495 1496 1496 1496 1496 1496 1497 1496 1496 1496 1496 1496 1496 1496 1496 1496 1496 1496 1496 1496 1495 1495 1495 1494
1485 1486 1486 1485 1485 1485 1485 1485 1485 1487 1487 1487 1488 1489 1490 1490 1491 1492 1493 1494 1495 1496 1496 1495 1495 1496 1495 1495 1495 1495 1495 1495 1494 1494 1494 1495 1495 1494 1494 1494 1494 1493 1493 1493
1483 1483 1483 1483 1483 1483 1483 1484 1484 1484 1485 1486 1487 1488 1488 1489 1490 1491 1493 1494 1494 1494 1495 1495 1495 1495 1495 1495 1495 1494 1494 1494 1493 1493 1493 1493 1493 1493 1493 1493 1492 1492 1492 1492
1479 1480 1480 1480 1480 1480 1481 1481 1482 1483 1484 1485 1485 1487 1487 1488 1489 1490 1492 1492 1493 1493 1493 1493 1494 1494 1494 1495 1495 1494 1494 1493 1493 1493 1493 1492 1492 1492 1492 1492 1492 1491 1491 1490
1477 1477 1477 1477 1478 1478 1478 1479 1479 1480 1481 1483 1483 1485 1486 1486 1487 1488 1490 1491 1491 1492 1492 1492 1493 1493 1493 1494 1494 1494 1494 1493 1493 1492 1492 1492 1491 1491 1491 1491 1491 1490 1490 1489
1475 1475 1475 1475 1475 1476 1476 1476 1477 1477 1478 1480 1481 1482 1483 1485 1487 1487 1488 1489 1490 1491 1491 1491 1492 1492 1492 1493 1493 1493 1493 1493 1492 1492 1492 1491 1491 1491 1490 1490 1490 1490 1489 1489
1473 1473 1473 1473 1473 1474 1474 1474 1475 1475 1477 1478 1479 1480 1481 1483 1485 1487 1487 1488 1489 1489 1490 1490 1491 1491 1492 1492 1492 1492 1492 1492 1492 1492 1492 1491 1491 1491 1490 1490 1490 1489 1489 1488
1471 1471 1471 1471 1472 1472 1473 1473 1473 1474 1475 1476 1477 1479 1481 1482 1484 1485 1486 1488 1488 1488 1489 1490 1491 1491 1491 1492 1492 1492 1492 1492 1492 1492 1492 1492 1491 1491 1491 1490 1489 1489 1488 1488
1470 1470 1470 1471 1471 1471 1472 1472 1473 1474 1475 1476 1478 1479 1481 1482 1484 1485 1486 1488 1488 1489 1489 1490 1491 1491 1491 1492 1492 1492 1492 1492 1492 1492 1492 1491 1491 1491 1490 1489 1489 1488 1488 1487
1470 1470 1470 1471 1471 1471 1472 1473 1474 1475 1476 1477 1479 1480 1482 1483 1485 1486 1487 1488 1489 1490 1490 1490 1491 1491 1492 1492 1492 1492 1492 1492 1492 1491 1491 1491 1491 1490 1489 1489 1488 1488 1487 1486
1471 1471 1472 1472 1473 1473 1474 1474 1475 1476 1477 1478 1480 1482 1483 1485 1486 1487 1488 1489 1490 1490 1491 1491 1492 1492 1492 1492 1492 1492 1492 1492 1491 1491 1491 1490 1490 1489 1489 1488 1487 1486 1485 1484
1473 1473 1474 1474 1475 1476 1476 1477 1478 1479 1480 1481 1482 1484 1485 1486 1487 1488 1489 1490 1491 1492 1492 1493 1493 1493 1493 1493 1493 1493 1493 1492 1492 1491 1491 1490 1489 1488 1487 1487 1486 1484 1483 1482